Zurück zum Katalog

FENGYUN 1C DEB

AktivPO
NORAD 36162·DEBRIS·🇨🇳 China

Gestartet May 10, 1999 von Taiyuan Satellite Launch Center

Loading…

Nächste Überflüge (nächste 24 Stunden)

TLE

AlterndSource: Space-Track

Epoche: Sep 7, 2026, 02:38 UTC

1 36162U 99025DSK 26250.11015094  .00002350  00000-0  11146-2 0  9994
2 36162  97.6216  10.9096 0246267  66.5184 296.1663 14.05562156742880

Verfolge FENGYUN 1C DEB in Echtzeit mit AllMySat

Download on the App Store